Location: ??? ?????
(30.6482°N, 60.5850°E)
Time: 17:18:33
(UTC+00:00)

COSMOS 2455 - Pass Details

Date: 09 April 2020
Orbit: 899 x 910 km, 67.1° (Epoch: 06 June)

Event Time Altitude Azimuth Distance (km) Brightness Sun altitude
Rises 16:39:35 0° 336° (NNW) 3,539 6.7 -28.6°
Reaches altitude 10° 16:42:06 10° 337° (NNW) 2,596 5.9 -29.1°
Enters shadow 16:47:35 74° 354° (N) 945 2.9 -30.1°
